Tracking 29892 objects as of 21-Nov-2024
HD Live streaming from Space Station
objects crossing your sky now

ONEWEB-0696

Track ONEWEB-0696 now!
10-day predictions
ONEWEB-0696 is classified as:


NORAD ID: 56723
Int'l Code: 2023-068P
Perigee: 1,207.5 km
Apogee: 1,210.3 km
Inclination: 87.9 °
Period: 109.5 minutes
Semi major axis: 7579 km
RCS: Unknown
Launch date: May 20, 2023
Source: United Kingdom (UK)
Launch site: AIR FORCE WESTERN TEST RANGE (AFWTR)
Your satellite tracking list
Your tracking list is empty




NASA's NSSDC Master Catalog

Two Line Element Set (TLE):
1 56723U 23068P   24325.54828486 -.00000844  00000-0 -22764-2 0  9994
2 56723  87.9096  13.4264 0001882  87.7474 272.3872 13.15550294 74647
Source of the keplerian elements: AFSPC